START_TIME,STEP,MOV.,M34,t_acc.,L5,t_acc.,L18,t_acc.,L14,t_acc.
1979-07-19 06:00:24.570 ,0,1,0.,12.0,0.,12.0,0.,12.0,0.,12.0
1979-07-19 06:00:36.570 ,0,1,0.,12.0,0.,12.0,0.,12.0,0.,12.0
1979-07-19 06:00:48.570 ,3,1,0.,12.0,0.,12.0,0.,12.0,0.,12.0
1979-07-19 06:01:00.570 ,3,1,0.,12.0,0.,12.0,0.,12.0,0.,12.0
1979-07-19 06:01:12.570 ,7,1,0.,12.0,0.,12.0,0.,12.0,0.,12.0
1979-07-19 06:01:24.570 ,7,1,0.,12.0,0.,12.0,0.,12.0,0.,12.0
1979-07-19 06:01:36.570 ,4,1,0.,12.0,0.,12.0,0.,12.0,0.,12.0
1979-07-19 06:01:48.570 ,4,1,0.,12.0,0.,12.0,0.,12.0,0.,12.0
1979-07-19 06:02:00.570 ,0,1,0.,12.0,0.,12.0,0.,12.0,0.,12.0
1979-07-19 06:02:12.570 ,0,1,0.,12.0,0.,12.0,0.,12.0,0.,12.0
1979-07-19 06:03:12.570 ,0,0,0.,12.0,0.,12.0,0.,12.0,0.,12.0
1979-07-19 06:03:24.570 ,0,0,0.,12.0,0.,12.0,0.,12.0,0.,12.0
1979-07-19 06:03:36.570 ,0,1,0.,12.0,0.,12.0,0.,12.0,0.,12.0
1979-07-19 06:03:48.570 ,0,1,0.,12.0,0.,12.0,0.,12.0,0.,12.0
1979-07-19 06:04:00.570 ,3,1,0.,12.0,0.,12.0,0.,12.0,0.,12.0
1979-07-19 06:04:12.570 ,3,1,0.,12.0,0.,12.0,0.,12.0,0.,12.0
1979-07-19 06:04:24.570 ,7,1,0.,12.0,0.,12.0,0.,12.0,0.,12.0
1979-07-19 06:04:36.570 ,7,1,0.,12.0,0.,12.0,0.,12.0,0.,12.0
1979-07-19 06:04:48.570 ,4,1,0.,12.0,0.,12.0,0.,12.0,0.,12.0
1979-07-19 06:05:00.570 ,4,1,0.,12.0,0.,12.0,0.,12.0,0.,12.0
1979-07-19 06:05:12.570 ,0,1,0.,12.0,0.,12.0,0.,12.0,0.,12.0
1979-07-19 06:05:24.570 ,0,1,0.,12.0,0.,12.0,0.,12.0,0.,12.0
1979-07-19 06:05:36.570 ,0,0,0.,12.0,0.,12.0,0.,12.0,0.,12.0
1979-07-19 06:05:48.570 ,0,0,0.,12.0,0.,12.0,0.,12.0,0.,12.0
1979-07-19 06:06:00.570 ,0,0,0.,12.0,0.,12.0,0.,12.0,0.,12.0
1979-07-19 06:06:12.570 ,0,0,0.,12.0,0.,12.0,0.,12.0,0.,12.0
1979-07-19 06:06:24.570 ,5,1,0.,12.0,0.,12.0,0.,12.0,0.,12.0
1979-07-19 06:06:36.570 ,5,1,0.,12.0,0.,12.0,0.,12.0,0.,12.0
1979-07-19 06:06:48.570 ,5,0,0.,12.0,0.,12.0,0.,12.0,0.,12.0
1979-07-19 06:07:00.570 ,5,0,0.,12.0,0.,12.0,0.,12.0,0.,12.0
1979-07-19 06:07:12.570 ,4,1,0.,12.0,0.,12.0,0.,12.0,0.,12.0
1979-07-19 06:07:24.570 ,4,1,0.,12.0,0.,12.0,0.,12.0,0.,12.0
1979-07-19 06:07:36.570 ,4,0,0.,12.0,0.,12.0,0.,12.0,0.,12.0
1979-07-19 06:07:48.570 ,4,0,0.,12.0,0.,12.0,0.,12.0,0.,12.0
1979-07-19 06:08:00.570 ,3,1,1.,12.0,0.,12.0,0.,12.0,0.,12.0
1979-07-19 06:08:12.570 ,3,1,0.,12.0,0.,12.0,0.,12.0,0.,12.0
1979-07-19 06:08:24.570 ,3,0,1.,12.0,0.,12.0,0.,12.0,0.,12.0
1979-07-19 06:08:36.570 ,3,0,0.,12.0,0.,12.0,0.,12.0,0.,12.0
1979-07-19 06:08:48.570 ,2,1,1.,12.0,0.,12.0,0.,12.0,0.,12.0
1979-07-19 06:09:00.570 ,2,1,0.,12.0,0.,12.0,0.,12.0,0.,12.0
1979-07-19 06:09:12.570 ,2,0,1.,12.0,0.,12.0,0.,12.0,0.,12.0
1979-07-19 06:09:24.570 ,2,0,0.,12.0,0.,12.0,0.,12.0,0.,12.0
1979-07-19 06:09:36.570 ,1,1,0.,12.0,0.,12.0,0.,12.0,0.,12.0
1979-07-19 06:09:48.570 ,1,1,0.,12.0,0.,12.0,0.,12.0,0.,12.0
1979-07-19 06:10:00.570 ,1,0,0.,12.0,0.,12.0,0.,12.0,0.,12.0
1979-07-19 06:10:12.570 ,1,0,0.,12.0,0.,12.0,0.,12.0,0.,12.0
1979-07-19 06:10:24.570 ,0,1,0.,12.0,0.,12.0,0.,12.0,0.,12.0
1979-07-19 06:10:36.570 ,0,1,0.,12.0,0.,12.0,0.,12.0,0.,12.0
1979-07-19 06:10:48.570 ,0,0,0.,12.0,0.,12.0,0.,12.0,0.,12.0
1979-07-19 06:11:00.570 ,0,0,0.,12.0,0.,12.0,0.,12.0,0.,12.0
1979-07-19 06:11:12.570 ,0,1,0.,12.0,0.,12.0,0.,12.0,0.,12.0
1979-07-19 06:11:24.570 ,0,1,0.,12.0,0.,12.0,0.,12.0,0.,12.0
1979-07-19 06:11:36.570 ,0,0,0.,12.0,0.,12.0,0.,12.0,0.,12.0
1979-07-19 06:11:48.570 ,0,0,0.,12.0,0.,12.0,0.,12.0,0.,12.0
1979-07-19 06:12:00.570 ,1,1,0.,12.0,0.,12.0,0.,12.0,0.,12.0
1979-07-19 06:12:12.570 ,1,1,0.,12.0,0.,12.0,0.,12.0,0.,12.0
1979-07-19 06:12:24.570 ,1,0,1.,12.0,0.,12.0,0.,12.0,0.,12.0
1979-07-19 06:12:36.570 ,1,0,0.,12.0,0.,12.0,0.,12.0,0.,12.0
1979-07-19 06:12:48.570 ,2,1,0.,12.0,0.,12.0,0.,12.0,0.,12.0
1979-07-19 06:13:00.570 ,2,1,0.,12.0,0.,12.0,0.,12.0,0.,12.0
1979-07-19 06:13:12.570 ,2,0,0.,12.0,0.,12.0,0.,12.0,0.,12.0
1979-07-19 06:13:24.570 ,2,0,0.,12.0,0.,12.0,0.,12.0,0.,12.0
1979-07-19 06:19:12.570 ,0,0,0.,12.0,0.,12.0,0.,12.0,0.,12.0
1979-07-19 06:19:24.570 ,0,0,0.,12.0,0.,12.0,0.,12.0,0.,12.0
1979-07-19 06:19:36.570 ,0,0,0.,12.0,0.,12.0,0.,12.0,0.,12.0
1979-07-19 06:19:48.570 ,0,0,0.,12.0,0.,12.0,0.,12.0,0.,12.0
1979-07-19 06:20:00.570 ,4,1,0.,12.0,0.,12.0,0.,12.0,0.,12.0
1979-07-19 06:20:12.570 ,4,1,0.,12.0,0.,12.0,0.,12.0,0.,12.0
1979-07-19 06:20:24.570 ,4,0,0.,12.0,0.,12.0,0.,12.0,0.,12.0
1979-07-19 06:20:36.570 ,4,0,0.,12.0,0.,12.0,0.,12.0,0.,12.0
1979-07-19 06:20:48.570 ,3,1,0.,12.0,0.,12.0,0.,12.0,0.,12.0
1979-07-19 06:21:00.570 ,3,1,0.,12.0,0.,12.0,0.,12.0,0.,12.0
1979-07-19 06:21:12.570 ,3,0,0.,12.0,0.,12.0,0.,12.0,0.,12.0
1979-07-19 06:21:24.570 ,3,0,0.,12.0,0.,12.0,0.,12.0,0.,12.0
1979-07-19 06:21:36.570 ,2,1,0.,12.0,0.,12.0,0.,12.0,0.,12.0
1979-07-19 06:21:48.570 ,2,1,0.,12.0,0.,12.0,0.,12.0,0.,12.0
1979-07-19 06:22:00.570 ,2,0,0.,12.0,0.,12.0,0.,12.0,0.,12.0
1979-07-19 06:22:12.570 ,2,0,0.,12.0,0.,12.0,0.,12.0,0.,12.0
1979-07-19 06:22:24.570 ,1,1,0.,12.0,0.,12.0,0.,12.0,0.,12.0
1979-07-19 06:22:36.570 ,1,1,0.,12.0,0.,12.0,0.,12.0,0.,12.0
1979-07-19 06:22:48.570 ,1,0,0.,12.0,0.,12.0,0.,12.0,0.,12.0
1979-07-19 06:23:00.570 ,1,0,0.,12.0,0.,12.0,0.,12.0,0.,12.0
1979-07-19 06:23:12.570 ,0,1,0.,12.0,0.,12.0,0.,12.0,0.,12.0
1979-07-19 06:23:24.570 ,0,1,0.,12.0,0.,12.0,0.,12.0,0.,12.0
1979-07-19 06:23:36.570 ,0,0,0.,12.0,0.,12.0,0.,12.0,0.,12.0
1979-07-19 06:23:48.570 ,0,0,0.,12.0,0.,12.0,0.,12.0,0.,12.0
1979-07-19 06:24:00.570 ,0,1,0.,12.0,0.,12.0,0.,12.0,0.,12.0
1979-07-19 06:24:12.570 ,0,1,0.,12.0,0.,12.0,0.,12.0,0.,12.0
1979-07-19 06:24:24.570 ,0,0,0.,12.0,0.,12.0,0.,12.0,0.,12.0
1979-07-19 06:24:36.570 ,0,0,0.,12.0,0.,12.0,0.,12.0,0.,12.0
1979-07-19 06:24:48.570 ,1,1,0.,12.0,0.,12.0,0.,12.0,0.,12.0
1979-07-19 06:25:00.570 ,1,1,0.,12.0,0.,12.0,0.,12.0,0.,12.0
1979-07-19 06:25:12.570 ,1,0,0.,12.0,0.,12.0,0.,12.0,0.,12.0
1979-07-19 06:25:24.570 ,1,0,0.,12.0,0.,12.0,0.,12.0,0.,12.0
1979-07-19 06:25:36.570 ,2,1,0.,12.0,0.,12.0,0.,12.0,0.,12.0
1979-07-19 06:25:48.570 ,2,1,0.,12.0,0.,12.0,0.,12.0,0.,12.0
1979-07-19 06:26:00.570 ,2,0,0.,12.0,0.,12.0,0.,12.0,0.,12.0
1979-07-19 06:26:12.570 ,2,0,1.,12.0,0.,12.0,0.,12.0,0.,12.0
1979-07-19 06:26:24.570 ,3,1,0.,12.0,0.,12.0,0.,12.0,0.,12.0
1979-07-19 06:26:36.570 ,3,1,0.,12.0,0.,12.0,0.,12.0,0.,12.0
1979-07-19 06:26:48.570 ,3,0,0.,12.0,0.,12.0,0.,12.0,0.,12.0
1979-07-19 06:27:00.570 ,3,0,1.,12.0,0.,12.0,0.,12.0,0.,12.0
1979-07-19 06:27:12.570 ,4,1,0.,12.0,0.,12.0,0.,12.0,0.,12.0
1979-07-19 06:27:24.570 ,4,1,0.,12.0,0.,12.0,0.,12.0,0.,12.0
1979-07-19 06:27:36.570 ,4,0,0.,12.0,0.,12.0,0.,12.0,0.,12.0
1979-07-19 06:27:48.570 ,4,0,0.,12.0,0.,12.0,0.,12.0,0.,12.0
1979-07-19 06:28:00.570 ,5,1,0.,12.0,0.,12.0,0.,12.0,0.,12.0
1979-07-19 06:28:12.570 ,5,1,0.,12.0,0.,12.0,0.,12.0,0.,12.0
1979-07-19 06:28:24.570 ,5,0,0.,12.0,0.,12.0,0.,12.0,0.,12.0
1979-07-19 06:28:36.570 ,5,0,0.,12.0,0.,12.0,0.,12.0,0.,12.0
1979-07-19 06:28:48.570 ,6,1,0.,12.0,0.,12.0,0.,12.0,0.,12.0
1979-07-19 06:29:00.570 ,6,1,0.,12.0,0.,12.0,0.,12.0,0.,12.0
1979-07-19 06:29:12.570 ,6,0,0.,12.0,0.,12.0,0.,12.0,0.,12.0
1979-07-19 06:29:24.570 ,6,0,1.,12.0,0.,12.0,0.,12.0,0.,12.0
1979-07-19 06:29:36.570 ,7,1,0.,12.0,0.,12.0,0.,12.0,0.,12.0
1979-07-19 06:29:48.570 ,7,1,0.,12.0,0.,12.0,0.,12.0,0.,12.0
1979-07-19 06:30:00.570 ,7,0,0.,12.0,0.,12.0,0.,12.0,0.,12.0
1979-07-19 06:30:12.570 ,7,0,0.,12.0,0.,12.0,0.,12.0,0.,12.0
1979-07-19 06:30:24.570 ,7,1,0.,12.0,0.,12.0,0.,12.0,0.,12.0
1979-07-19 06:30:36.570 ,7,1,0.,12.0,0.,12.0,0.,12.0,0.,12.0
1979-07-19 06:30:48.570 ,7,0,0.,12.0,0.,12.0,0.,12.0,0.,12.0
1979-07-19 06:31:00.570 ,7,0,0.,12.0,0.,12.0,0.,12.0,0.,12.0
1979-07-19 06:31:12.570 ,6,1,0.,12.0,0.,12.0,0.,12.0,0.,12.0
1979-07-19 06:31:24.570 ,6,1,0.,12.0,0.,12.0,0.,12.0,0.,12.0
1979-07-19 06:31:36.570 ,6,0,0.,12.0,0.,12.0,0.,12.0,0.,12.0
1979-07-19 06:31:48.570 ,6,0,0.,12.0,0.,12.0,0.,12.0,0.,12.0
1979-07-19 06:32:00.570 ,5,1,0.,12.0,0.,12.0,0.,12.0,0.,12.0
1979-07-19 06:32:12.570 ,5,1,0.,12.0,0.,12.0,0.,12.0,0.,12.0
1979-07-19 06:32:24.570 ,0,0,0.,12.0,0.,12.0,0.,12.0,0.,12.0
1979-07-19 06:32:36.570 ,0,0,,0,,0,,0,,0
1979-07-19 06:32:37.170 ,0,0,,0,,0,,0,,0
1979-07-19 06:32:49.170 ,0,0,0.,12.0,0.,12.0,0.,12.0,0.,12.0
1979-07-19 06:33:36.570 ,0,0,0.,12.0,0.,12.0,0.,12.0,0.,12.0
1979-07-19 06:33:48.570 ,0,0,0.,12.0,0.,12.0,0.,12.0,0.,12.0
1979-07-19 06:34:00.570 ,0,0,0.,12.0,0.,12.0,0.,12.0,0.,12.0
1979-07-19 06:34:12.570 ,0,0,0.,12.0,0.,12.0,0.,12.0,0.,12.0
1979-07-19 06:34:24.570 ,2,1,0.,12.0,0.,12.0,0.,12.0,0.,12.0
1979-07-19 06:34:36.570 ,2,1,0.,12.0,0.,12.0,0.,12.0,0.,12.0
1979-07-19 06:34:48.570 ,2,0,0.,12.0,0.,12.0,0.,12.0,0.,12.0
1979-07-19 06:35:00.570 ,2,0,0.,12.0,0.,12.0,0.,12.0,0.,12.0
1979-07-19 06:35:12.570 ,1,1,0.,12.0,0.,12.0,0.,12.0,0.,12.0
1979-07-19 06:35:24.570 ,1,1,1.,12.0,0.,12.0,0.,12.0,0.,12.0
1979-07-19 06:35:36.570 ,1,0,0.,12.0,0.,12.0,0.,12.0,0.,12.0
1979-07-19 06:35:48.570 ,1,0,0.,12.0,0.,12.0,0.,12.0,0.,12.0
1979-07-19 06:36:00.570 ,0,1,0.,12.0,0.,12.0,0.,12.0,0.,12.0
1979-07-19 06:36:12.570 ,0,1,0.,12.0,0.,12.0,0.,12.0,0.,12.0
1979-07-19 06:36:24.570 ,0,0,0.,12.0,0.,12.0,0.,12.0,0.,12.0
1979-07-19 06:36:36.570 ,0,0,0.,12.0,0.,12.0,0.,12.0,0.,12.0
1979-07-19 06:36:48.570 ,0,1,0.,12.0,0.,12.0,0.,12.0,0.,12.0
1979-07-19 06:37:00.570 ,0,1,0.,12.0,0.,12.0,0.,12.0,0.,12.0
1979-07-19 06:37:12.570 ,0,0,0.,12.0,0.,12.0,0.,12.0,0.,12.0
1979-07-19 06:37:24.570 ,0,0,0.,12.0,0.,12.0,0.,12.0,0.,12.0
1979-07-19 06:37:36.570 ,1,1,0.,12.0,0.,12.0,0.,12.0,0.,12.0
1979-07-19 06:37:48.570 ,1,1,0.,12.0,0.,12.0,0.,12.0,0.,12.0
1979-07-19 06:38:00.570 ,1,0,0.,12.0,0.,12.0,0.,12.0,0.,12.0
1979-07-19 06:38:12.570 ,1,0,0.,12.0,0.,12.0,0.,12.0,0.,12.0
1979-07-19 06:38:24.570 ,2,1,0.,12.0,0.,12.0,0.,12.0,0.,12.0
1979-07-19 06:38:36.570 ,2,1,0.,12.0,0.,12.0,0.,12.0,0.,12.0
1979-07-19 06:38:48.570 ,2,0,0.,12.0,0.,12.0,0.,12.0,0.,12.0
1979-07-19 06:39:00.570 ,2,0,0.,12.0,0.,12.0,0.,12.0,0.,12.0
1979-07-19 06:39:12.570 ,3,1,0.,12.0,0.,12.0,0.,12.0,0.,12.0
1979-07-19 06:39:24.570 ,3,1,0.,12.0,0.,12.0,0.,12.0,0.,12.0
1979-07-19 06:39:36.570 ,3,0,0.,12.0,0.,12.0,0.,12.0,0.,12.0
1979-07-19 06:39:48.570 ,3,0,0.,12.0,0.,12.0,0.,12.0,0.,12.0
1979-07-19 06:40:00.570 ,4,1,0.,12.0,0.,12.0,0.,12.0,0.,12.0
1979-07-19 06:40:12.570 ,4,1,0.,12.0,0.,12.0,0.,12.0,0.,12.0
1979-07-19 06:40:24.570 ,4,0,0.,12.0,0.,12.0,0.,12.0,0.,12.0
1979-07-19 06:40:36.570 ,4,0,0.,12.0,0.,12.0,0.,12.0,0.,12.0
1979-07-19 06:40:48.570 ,5,1,0.,12.0,0.,12.0,0.,12.0,0.,12.0
1979-07-19 06:41:00.570 ,5,1,0.,12.0,0.,12.0,0.,12.0,0.,12.0
1979-07-19 06:41:12.570 ,5,0,0.,12.0,0.,12.0,0.,12.0,0.,12.0
1979-07-19 06:41:24.570 ,5,0,0.,12.0,0.,12.0,0.,12.0,0.,12.0
1979-07-19 06:41:36.570 ,6,1,,0,,0,,0,,0
1979-07-19 06:41:48.570 ,6,1,0.,12.0,0.,12.0,0.,12.0,0.,12.0
1979-07-19 06:42:00.570 ,6,0,0.,12.0,0.,12.0,0.,12.0,0.,12.0
1979-07-19 06:42:12.570 ,6,0,0.,12.0,0.,12.0,0.,12.0,0.,12.0
1979-07-19 06:42:24.570 ,7,0,0.,12.0,0.,12.0,0.,12.0,0.,12.0
1979-07-19 06:42:36.570 ,7,0,0.,12.0,0.,12.0,0.,12.0,0.,12.0
1979-07-19 06:42:48.570 ,7,0,0.,12.0,0.,12.0,0.,12.0,0.,12.0
1979-07-19 06:43:00.570 ,7,0,0.,12.0,0.,12.0,0.,12.0,0.,12.0
1979-07-19 06:43:12.570 ,4,1,0.,12.0,0.,12.0,0.,12.0,0.,12.0
1979-07-19 06:43:24.570 ,4,1,0.,12.0,0.,12.0,0.,12.0,0.,12.0
1979-07-19 06:43:36.570 ,0,1,0.,12.0,0.,12.0,0.,12.0,0.,12.0
1979-07-19 06:43:48.570 ,0,1,0.,12.0,0.,12.0,0.,12.0,0.,12.0
1979-07-19 06:44:48.570 ,0,0,0.,12.0,0.,12.0,0.,12.0,0.,12.0
1979-07-19 06:45:00.570 ,0,0,0.,12.0,0.,12.0,0.,12.0,0.,12.0
1979-07-19 06:45:12.570 ,0,1,0.,12.0,0.,12.0,0.,12.0,0.,12.0
1979-07-19 06:45:24.570 ,0,1,0.,12.0,0.,12.0,0.,12.0,0.,12.0
1979-07-19 06:45:36.560 ,3,1,0.,12.0,0.,12.0,0.,12.0,0.,12.0
1979-07-19 06:45:48.560 ,3,1,0.,12.0,0.,12.0,0.,12.0,0.,12.0
1979-07-19 06:46:00.560 ,0,0,0.,12.0,0.,12.0,0.,12.0,0.,12.0
1979-07-19 06:46:12.560 ,0,0,0.,12.0,0.,12.0,0.,12.0,0.,12.0
1979-07-19 06:46:24.560 ,0,0,0.,12.0,0.,12.0,0.,12.0,0.,12.0
1979-07-19 06:46:36.560 ,0,0,0.,12.0,0.,12.0,0.,12.0,0.,12.0
1979-07-19 06:46:48.560 ,0,1,0.,12.0,0.,12.0,0.,12.0,0.,12.0
1979-07-19 06:47:00.560 ,0,1,0.,12.0,0.,12.0,0.,12.0,0.,12.0
1979-07-19 06:47:12.560 ,3,1,0.,12.0,0.,12.0,0.,12.0,0.,12.0
1979-07-19 06:47:24.560 ,3,1,0.,12.0,0.,12.0,0.,12.0,0.,12.0
1979-07-19 06:47:36.560 ,7,1,0.,12.0,0.,12.0,0.,12.0,0.,12.0
1979-07-19 06:47:48.560 ,7,1,0.,12.0,0.,12.0,0.,12.0,0.,12.0
1979-07-19 06:48:00.560 ,4,1,0.,12.0,0.,12.0,0.,12.0,0.,12.0
1979-07-19 06:48:12.560 ,4,1,0.,12.0,0.,12.0,0.,12.0,0.,12.0
1979-07-19 06:48:24.560 ,0,1,0.,12.0,0.,12.0,0.,12.0,0.,12.0
1979-07-19 06:48:36.560 ,0,1,0.,12.0,0.,12.0,0.,12.0,0.,12.0
1979-07-19 06:48:48.560 ,3,1,0.,12.0,0.,12.0,0.,12.0,0.,12.0
1979-07-19 06:49:00.560 ,3,1,0.,12.0,0.,12.0,0.,12.0,0.,12.0
1979-07-19 06:49:12.560 ,7,1,0.,12.0,0.,12.0,0.,12.0,0.,12.0
1979-07-19 06:49:24.560 ,7,1,1.,12.0,0.,12.0,0.,12.0,0.,12.0
1979-07-19 06:49:36.560 ,4,1,0.,12.0,0.,12.0,0.,12.0,0.,12.0
1979-07-19 06:49:48.560 ,4,1,0.,12.0,0.,12.0,0.,12.0,0.,12.0
1979-07-19 06:50:00.560 ,0,1,0.,12.0,0.,12.0,0.,12.0,0.,12.0
1979-07-19 06:50:12.560 ,0,1,0.,12.0,0.,12.0,0.,12.0,0.,12.0
1979-07-19 06:50:24.560 ,0,0,0.,12.0,0.,12.0,0.,12.0,0.,12.0
1979-07-19 06:50:36.560 ,0,0,0.,12.0,0.,12.0,0.,12.0,0.,12.0
1979-07-19 06:50:48.560 ,7,1,0.,12.0,0.,12.0,0.,12.0,0.,12.0
1979-07-19 06:51:00.560 ,7,1,0.,12.0,0.,12.0,0.,12.0,0.,12.0
1979-07-19 06:51:12.560 ,4,1,0.,12.0,0.,12.0,0.,12.0,0.,12.0
1979-07-19 06:51:24.560 ,4,1,0.,12.0,0.,12.0,0.,12.0,0.,12.0
1979-07-19 06:51:36.560 ,0,1,0.,12.0,0.,12.0,0.,12.0,0.,12.0
1979-07-19 06:51:48.560 ,0,1,0.,12.0,0.,12.0,0.,12.0,0.,12.0
1979-07-19 06:52:00.560 ,3,1,0.,12.0,0.,12.0,0.,12.0,0.,12.0
1979-07-19 06:52:12.560 ,3,1,0.,12.0,0.,12.0,0.,12.0,0.,12.0
1979-07-19 06:52:24.560 ,7,1,0.,12.0,0.,12.0,0.,12.0,0.,12.0
1979-07-19 06:52:36.560 ,7,1,0.,12.0,0.,12.0,0.,12.0,0.,12.0
1979-07-19 06:52:48.560 ,4,1,0.,12.0,0.,12.0,0.,12.0,0.,12.0
1979-07-19 06:53:00.560 ,4,1,0.,12.0,0.,12.0,0.,12.0,0.,12.0
1979-07-19 06:53:12.560 ,0,0,0.,12.0,0.,12.0,0.,12.0,0.,12.0
1979-07-19 06:53:24.560 ,0,0,0.,12.0,0.,12.0,0.,12.0,0.,12.0
1979-07-19 06:53:37.170 ,0,0,0.,12.0,0.,12.0,0.,12.0,0.,12.0
1979-07-19 06:53:49.170 ,0,0,0.,12.0,0.,12.0,0.,12.0,0.,12.0
1979-07-19 06:54:00.560 ,0,0,0.,12.0,0.,12.0,0.,12.0,0.,12.0
1979-07-19 06:54:12.560 ,0,0,0.,12.0,0.,12.0,0.,12.0,0.,12.0
1979-07-19 06:54:24.560 ,5,1,0.,12.0,0.,12.0,0.,12.0,0.,12.0
1979-07-19 06:54:36.560 ,5,1,0.,12.0,0.,12.0,0.,12.0,0.,12.0
1979-07-19 06:54:48.560 ,5,0,0.,12.0,0.,12.0,0.,12.0,0.,12.0
1979-07-19 06:55:00.560 ,5,0,0.,12.0,0.,12.0,0.,12.0,0.,12.0
1979-07-19 06:55:12.560 ,4,1,0.,12.0,0.,12.0,0.,12.0,0.,12.0
1979-07-19 06:55:24.560 ,4,1,0.,12.0,0.,12.0,0.,12.0,0.,12.0
1979-07-19 06:55:36.560 ,4,0,0.,12.0,0.,12.0,0.,12.0,0.,12.0
1979-07-19 06:55:48.560 ,4,0,0.,12.0,0.,12.0,0.,12.0,0.,12.0
1979-07-19 06:56:00.560 ,3,1,0.,12.0,0.,12.0,0.,12.0,0.,12.0
1979-07-19 06:56:12.560 ,3,1,0.,12.0,0.,12.0,0.,12.0,0.,12.0
1979-07-19 06:56:24.560 ,3,0,0.,12.0,0.,12.0,0.,12.0,0.,12.0
1979-07-19 06:56:36.560 ,3,0,0.,12.0,0.,12.0,0.,12.0,0.,12.0
1979-07-19 06:56:48.560 ,2,1,0.,12.0,0.,12.0,0.,12.0,0.,12.0
1979-07-19 06:57:00.560 ,2,1,0.,12.0,0.,12.0,0.,12.0,0.,12.0
1979-07-19 06:57:12.560 ,2,0,0.,12.0,0.,12.0,0.,12.0,0.,12.0
1979-07-19 06:57:24.560 ,2,0,0.,12.0,0.,12.0,0.,12.0,0.,12.0
1979-07-19 06:57:36.560 ,1,1,0.,12.0,0.,12.0,0.,12.0,0.,12.0
1979-07-19 06:57:48.560 ,1,1,0.,12.0,0.,12.0,0.,12.0,0.,12.0
1979-07-19 06:58:00.560 ,1,0,0.,12.0,0.,12.0,0.,12.0,0.,12.0
1979-07-19 06:58:12.560 ,1,0,0.,12.0,0.,12.0,0.,12.0,0.,12.0
1979-07-19 06:58:24.560 ,0,1,0.,12.0,0.,12.0,0.,12.0,0.,12.0
1979-07-19 06:58:36.560 ,0,1,0.,12.0,0.,12.0,0.,12.0,0.,12.0
1979-07-19 06:58:48.560 ,0,0,0.,12.0,0.,12.0,0.,12.0,0.,12.0
1979-07-19 06:59:00.560 ,0,0,0.,12.0,0.,12.0,0.,12.0,0.,12.0
1979-07-19 06:59:12.560 ,0,1,0.,12.0,0.,12.0,0.,12.0,0.,12.0
1979-07-19 06:59:24.560 ,0,1,0.,12.0,0.,12.0,0.,12.0,0.,12.0
1979-07-19 06:59:36.560 ,0,0,0.,12.0,0.,12.0,0.,12.0,0.,12.0
1979-07-19 06:59:48.560 ,0,0,0.,12.0,0.,12.0,0.,12.0,0.,12.0
1979-07-19 07:00:00.560 ,1,1,0.,12.0,0.,12.0,0.,12.0,0.,12.0
1979-07-19 07:00:12.560 ,1,1,0.,12.0,0.,12.0,0.,12.0,0.,12.0
1979-07-19 07:00:24.570 ,1,0,0.,12.0,0.,12.0,0.,12.0,0.,12.0
1979-07-19 07:00:36.570 ,1,0,0.,12.0,0.,12.0,0.,12.0,0.,12.0
1979-07-19 07:00:48.570 ,2,1,0.,12.0,0.,12.0,0.,12.0,0.,12.0
1979-07-19 07:01:00.570 ,2,1,0.,12.0,0.,12.0,0.,12.0,0.,12.0
1979-07-19 07:01:12.560 ,2,0,0.,12.0,0.,12.0,0.,12.0,0.,12.0
1979-07-19 07:01:24.570 ,2,0,0.,12.0,0.,12.0,0.,12.0,0.,12.0
1979-07-19 07:01:36.560 ,3,1,0.,12.0,0.,12.0,0.,12.0,0.,12.0
1979-07-19 07:01:48.570 ,3,1,0.,12.0,0.,12.0,0.,12.0,0.,12.0
1979-07-19 07:02:00.570 ,3,0,0.,12.0,0.,12.0,0.,12.0,0.,12.0
1979-07-19 07:02:12.570 ,3,0,0.,12.0,0.,12.0,0.,12.0,0.,12.0
1979-07-19 07:02:24.570 ,4,1,0.,12.0,0.,12.0,0.,12.0,0.,12.0
1979-07-19 07:02:36.570 ,4,1,0.,12.0,0.,12.0,0.,12.0,0.,12.0
1979-07-19 07:02:48.570 ,4,0,0.,12.0,0.,12.0,0.,12.0,0.,12.0
1979-07-19 07:03:00.570 ,4,0,0.,12.0,0.,12.0,0.,12.0,0.,12.0
1979-07-19 07:03:12.570 ,5,1,0.,12.0,0.,12.0,0.,12.0,0.,12.0
1979-07-19 07:03:24.570 ,5,1,0.,12.0,0.,12.0,0.,12.0,0.,12.0
1979-07-19 07:03:36.570 ,5,0,0.,12.0,0.,12.0,0.,12.0,0.,12.0
1979-07-19 07:03:48.570 ,5,0,0.,12.0,0.,12.0,0.,12.0,0.,12.0
1979-07-19 07:04:00.570 ,6,1,0.,12.0,0.,12.0,0.,12.0,0.,12.0
1979-07-19 07:04:12.570 ,6,1,0.,12.0,0.,12.0,0.,12.0,0.,12.0
1979-07-19 07:04:24.570 ,6,0,0.,12.0,0.,12.0,0.,12.0,0.,12.0
1979-07-19 07:04:36.570 ,6,0,0.,12.0,0.,12.0,0.,12.0,0.,12.0
1979-07-19 07:04:48.560 ,7,1,0.,12.0,0.,12.0,0.,12.0,0.,12.0
1979-07-19 07:05:00.560 ,7,1,0.,12.0,0.,12.0,0.,12.0,0.,12.0
1979-07-19 07:05:12.560 ,7,0,0.,12.0,0.,12.0,0.,12.0,0.,12.0
1979-07-19 07:05:24.560 ,7,0,0.,12.0,0.,12.0,0.,12.0,0.,12.0
1979-07-19 07:05:36.560 ,7,1,0.,12.0,0.,12.0,0.,12.0,0.,12.0
1979-07-19 07:05:48.560 ,7,1,0.,12.0,0.,12.0,0.,12.0,0.,12.0
1979-07-19 07:06:00.560 ,7,0,0.,12.0,0.,12.0,0.,12.0,0.,12.0
1979-07-19 07:06:12.560 ,7,0,0.,12.0,0.,12.0,0.,12.0,0.,12.0
1979-07-19 07:06:24.560 ,6,1,0.,12.0,0.,12.0,0.,12.0,0.,12.0
1979-07-19 07:06:36.560 ,6,1,0.,12.0,0.,12.0,0.,12.0,0.,12.0
1979-07-19 07:06:48.560 ,6,0,0.,12.0,0.,12.0,0.,12.0,0.,12.0
1979-07-19 07:07:00.560 ,6,0,0.,12.0,0.,12.0,0.,12.0,0.,12.0
1979-07-19 07:07:12.560 ,5,1,0.,12.0,0.,12.0,0.,12.0,0.,12.0
1979-07-19 07:07:24.560 ,5,1,0.,12.0,0.,12.0,0.,12.0,0.,12.0
1979-07-19 07:07:36.560 ,5,0,0.,12.0,0.,12.0,0.,12.0,0.,12.0
1979-07-19 07:07:48.560 ,5,0,1.,12.0,0.,12.0,0.,12.0,0.,12.0
1979-07-19 07:08:00.560 ,4,1,0.,12.0,0.,12.0,0.,12.0,0.,12.0
1979-07-19 07:08:12.560 ,4,1,1.,12.0,0.,12.0,0.,12.0,0.,12.0
1979-07-19 07:08:24.560 ,4,0,0.,12.0,0.,12.0,0.,12.0,0.,12.0
1979-07-19 07:08:36.560 ,4,0,0.,12.0,0.,12.0,0.,12.0,0.,12.0
1979-07-19 07:08:48.560 ,3,1,0.,12.0,0.,12.0,0.,12.0,0.,12.0
1979-07-19 07:09:00.560 ,3,1,0.,12.0,0.,12.0,0.,12.0,0.,12.0
1979-07-19 07:09:12.560 ,3,0,0.,12.0,0.,12.0,0.,12.0,0.,12.0
1979-07-19 07:09:24.560 ,3,0,0.,12.0,0.,12.0,0.,12.0,0.,12.0
1979-07-19 07:09:36.560 ,2,1,0.,12.0,0.,12.0,0.,12.0,0.,12.0
1979-07-19 07:09:48.560 ,2,1,0.,12.0,0.,12.0,0.,12.0,0.,12.0
1979-07-19 07:10:00.560 ,2,0,0.,12.0,0.,12.0,0.,12.0,0.,12.0
1979-07-19 07:10:12.560 ,2,0,0.,12.0,0.,12.0,0.,12.0,0.,12.0
1979-07-19 07:10:24.560 ,1,1,1.,12.0,0.,12.0,0.,12.0,0.,12.0
1979-07-19 07:10:36.560 ,1,1,0.,12.0,0.,12.0,0.,12.0,0.,12.0
1979-07-19 07:10:48.560 ,1,0,0.,12.0,0.,12.0,0.,12.0,0.,12.0
1979-07-19 07:11:00.560 ,1,0,0.,12.0,0.,12.0,0.,12.0,0.,12.0
1979-07-19 07:11:12.560 ,0,1,0.,12.0,0.,12.0,0.,12.0,0.,12.0
1979-07-19 07:11:24.560 ,0,1,0.,12.0,0.,12.0,0.,12.0,0.,12.0
1979-07-19 07:11:36.560 ,0,0,0.,12.0,0.,12.0,0.,12.0,0.,12.0
1979-07-19 07:11:48.560 ,0,0,0.,12.0,0.,12.0,0.,12.0,0.,12.0
1979-07-19 07:12:00.560 ,0,1,0.,12.0,0.,12.0,0.,12.0,0.,12.0
1979-07-19 07:12:12.560 ,0,1,0.,12.0,0.,12.0,0.,12.0,0.,12.0
1979-07-19 07:12:24.560 ,0,0,0.,12.0,0.,12.0,0.,12.0,0.,12.0
1979-07-19 07:12:36.560 ,0,0,0.,12.0,0.,12.0,0.,12.0,0.,12.0
1979-07-19 07:12:48.560 ,0,0,0.,12.0,0.,12.0,0.,12.0,0.,12.0
1979-07-19 07:13:00.560 ,0,0,0.,12.0,0.,12.0,0.,12.0,0.,12.0
1979-07-19 07:13:12.560 ,0,0,0.,12.0,0.,12.0,0.,12.0,0.,12.0
1979-07-19 07:13:24.560 ,0,0,0.,12.0,0.,12.0,0.,12.0,0.,12.0
1979-07-19 07:13:36.560 ,2,1,0.,12.0,0.,12.0,0.,12.0,0.,12.0
1979-07-19 07:13:48.560 ,2,1,0.,12.0,0.,12.0,0.,12.0,0.,12.0
1979-07-19 07:14:00.560 ,2,0,,0,,0,,0,,0
1979-07-19 07:14:12.560 ,2,0,0.,12.0,0.,12.0,0.,12.0,0.,12.0
1979-07-19 07:14:24.560 ,2,0,0.,12.0,0.,12.0,0.,12.0,0.,12.0
1979-07-19 07:14:36.560 ,2,0,,0,,0,,0,,0
1979-07-19 07:14:48.560 ,3,0,0.,12.0,0.,12.0,0.,12.0,0.,12.0
1979-07-19 07:15:00.560 ,3,0,0.,12.0,0.,12.0,0.,12.0,0.,12.0
1979-07-19 07:15:12.560 ,4,1,0.,12.0,0.,12.0,0.,12.0,0.,12.0
1979-07-19 07:15:24.560 ,4,1,0.,12.0,0.,12.0,0.,12.0,0.,12.0
1979-07-19 07:15:36.560 ,4,0,0.,12.0,0.,12.0,0.,12.0,0.,12.0
1979-07-19 07:15:48.560 ,4,0,0.,12.0,0.,12.0,0.,12.0,0.,12.0
1979-07-19 07:16:00.560 ,5,1,0.,12.0,0.,12.0,0.,12.0,0.,12.0
1979-07-19 07:16:12.560 ,5,1,0.,12.0,0.,12.0,0.,12.0,0.,12.0
1979-07-19 07:16:24.560 ,5,0,1.,12.0,0.,12.0,0.,12.0,0.,12.0
1979-07-19 07:16:36.560 ,5,0,0.,12.0,0.,12.0,0.,12.0,0.,12.0
1979-07-19 07:16:48.560 ,6,1,0.,12.0,0.,12.0,0.,12.0,0.,12.0
1979-07-19 07:17:00.560 ,6,1,0.,12.0,0.,12.0,0.,12.0,0.,12.0
1979-07-19 07:17:12.560 ,6,0,0.,12.0,0.,12.0,0.,12.0,0.,12.0
1979-07-19 07:17:24.560 ,6,0,0.,12.0,0.,12.0,0.,12.0,0.,12.0
1979-07-19 07:17:36.560 ,7,1,0.,12.0,0.,12.0,0.,12.0,0.,12.0
1979-07-19 07:17:48.560 ,7,1,0.,12.0,0.,12.0,0.,12.0,0.,12.0
1979-07-19 07:18:00.560 ,7,0,0.,12.0,0.,12.0,0.,12.0,0.,12.0
1979-07-19 07:18:12.560 ,7,0,0.,12.0,0.,12.0,0.,12.0,0.,12.0
1979-07-19 07:18:24.560 ,7,1,0.,12.0,0.,12.0,0.,12.0,0.,12.0
1979-07-19 07:18:36.560 ,7,1,0.,12.0,0.,12.0,0.,12.0,0.,12.0
1979-07-19 07:18:48.560 ,7,0,0.,12.0,0.,12.0,0.,12.0,0.,12.0
1979-07-19 07:19:00.560 ,7,0,0.,12.0,0.,12.0,0.,12.0,0.,12.0
1979-07-19 07:19:12.560 ,6,1,0.,12.0,0.,12.0,0.,12.0,0.,12.0
1979-07-19 07:19:24.560 ,6,1,0.,12.0,0.,12.0,0.,12.0,0.,12.0
1979-07-19 07:19:36.560 ,6,0,0.,12.0,0.,12.0,0.,12.0,0.,12.0
1979-07-19 07:19:48.560 ,6,0,0.,12.0,0.,12.0,0.,12.0,0.,12.0
1979-07-19 07:20:00.560 ,5,1,0.,12.0,0.,12.0,0.,12.0,0.,12.0
1979-07-19 07:20:12.560 ,5,1,0.,12.0,0.,12.0,0.,12.0,0.,12.0
1979-07-19 07:20:24.560 ,5,0,0.,12.0,0.,12.0,0.,12.0,0.,12.0
1979-07-19 07:20:36.560 ,5,0,0.,12.0,0.,12.0,0.,12.0,0.,12.0
1979-07-19 07:21:36.560 ,0,0,0.,12.0,0.,12.0,0.,12.0,0.,12.0
1979-07-19 07:21:48.560 ,0,0,0.,12.0,0.,12.0,0.,12.0,0.,12.0
1979-07-19 07:22:00.560 ,0,0,0.,12.0,0.,12.0,0.,12.0,0.,12.0
1979-07-19 07:22:12.560 ,0,0,0.,12.0,0.,12.0,0.,12.0,0.,12.0
1979-07-19 07:22:24.560 ,2,1,0.,12.0,0.,12.0,0.,12.0,0.,12.0
1979-07-19 07:22:36.560 ,2,1,0.,12.0,0.,12.0,0.,12.0,0.,12.0
1979-07-19 07:22:48.560 ,2,0,0.,12.0,0.,12.0,0.,12.0,0.,12.0
1979-07-19 07:23:00.560 ,2,0,0.,12.0,0.,12.0,0.,12.0,0.,12.0
1979-07-19 07:23:12.560 ,1,1,0.,12.0,0.,12.0,0.,12.0,0.,12.0
1979-07-19 07:23:24.560 ,1,1,0.,12.0,0.,12.0,0.,12.0,0.,12.0
1979-07-19 07:23:36.560 ,1,0,0.,12.0,0.,12.0,0.,12.0,0.,12.0
1979-07-19 07:23:48.560 ,1,0,0.,12.0,0.,12.0,0.,12.0,0.,12.0
1979-07-19 07:24:00.560 ,0,1,0.,12.0,0.,12.0,0.,12.0,0.,12.0
1979-07-19 07:24:12.560 ,0,1,0.,12.0,0.,12.0,0.,12.0,0.,12.0
1979-07-19 07:24:24.560 ,0,0,0.,12.0,0.,12.0,0.,12.0,0.,12.0
1979-07-19 07:24:36.560 ,0,0,0.,12.0,0.,12.0,0.,12.0,0.,12.0
1979-07-19 07:24:48.560 ,0,1,0.,12.0,0.,12.0,0.,12.0,0.,12.0
1979-07-19 07:25:00.560 ,0,1,0.,12.0,0.,12.0,0.,12.0,0.,12.0
1979-07-19 07:25:12.560 ,0,0,0.,12.0,0.,12.0,0.,12.0,0.,12.0
1979-07-19 07:25:24.560 ,0,0,0.,12.0,0.,12.0,0.,12.0,0.,12.0
1979-07-19 07:25:36.560 ,1,1,0.,12.0,0.,12.0,0.,12.0,0.,12.0
1979-07-19 07:25:48.560 ,1,1,0.,12.0,0.,12.0,0.,12.0,0.,12.0
1979-07-19 07:26:00.560 ,1,0,0.,12.0,0.,12.0,0.,12.0,0.,12.0